Погода в Славянке

Россия / Приморский край     42°51′53″N   131°23′08″E
темп.,
°C
ветер,
м/с
пор.,
м/с
влажн.,
%
обл.,
%
осадки,
мм/ч
давл.,
гПа
погр.,
м
24 сентября, пт
пт2401:00+16с7971100 0.0 1022843
04:00+16ссв7975100 0.0 1023811
07:00+16с787563 0.0 1025674
10:00+16ссв88720 0.0 1026618
13:00+17св67690 0.0 1027603
16:00+18в44640 0.0 1026446
19:00+18ююв21630 0.0 1026362
22:00+18зюз11660 0.0 1027300
25 сентября, сб
сб2501:00+17ссз227349 0.0 1027212
04:00+16ссв2274100 0.0 1027287
07:00+17св2375100 0.1 1027437
10:00+16св2284100 0.6 1028316
13:00+17ююв2485100 0.6 1027425
16:00+19ююз4682100 1.6 1025619
19:00+19ююз5682100 0.6 1026642
22:00+19ю5682100 1.0 1026598
26 сентября, вс
вс2601:00+19ююз5680100 0.3 1025644
04:00+19ююз5679100 0.6 1024627
07:00+19юз447984 0.3 1024588
10:00+19ююз447892 0.5 1024520
13:00+19ююз557676 0.2 1023617
16:00+19ююз55763 0.3 1022497
19:00+19ююз55791 0.0 1022384
22:00+19ююз45790 0.0 1022499
27 сентября, пн
пн2701:00+19ююз34805 0.1 1022441
04:00+19ююз3478100 0.1 1020549
07:00+19ю5578100 0.0 1020618
10:00+19ю6678100 0.1 1020674
13:00+19ю7777100 0.0 1019690
16:00+19ю66767 0.0 1018672
19:00+19ю55772 0.0 1018617
22:00+19ю56755 0.0 1018601
28 сентября, вт
вт2801:00+19ю55777 0.0 1018523
04:00+19ю447699 0.0 1017471
07:00+19ююз447791 0.0 1018461
10:00+19ю4478100 0.0 1018512
13:00+19ю5576100 0.0 1017616
16:00+19ююв5574100 0.0 1015615
19:00+19ююв5675100 0.0 1015566
22:00+19ююв6886100 0.0 1014647